Le nostre stazioni meteo in Italia

Pubblicità
Il mio iltempo24.it
Roma/Ciampino, Italia (16239): Temperatura & dewpoint: 10.07.2018 20:00:00 - 16.07.2018 20:00:00 (CEST)Roma/Ciampino, Italia (16239): velocità del vento: 10.07.2018 20:00:00 - 16.07.2018 20:00:00 (CEST)Roma/Ciampino, Italia (16239): direzione del vento: 10.07.2018 20:00:00 - 16.07.2018 20:00:00 (CEST)Roma/Ciampino, Italia (16239): reduced air pressure: 10.07.2018 20:00:00 - 16.07.2018 20:00:00 (CEST)Roma/Ciampino, Italia (16239): visibility: 10.07.2018 20:00:00 - 16.07.2018 20:00:00 (CEST)Roma/Ciampino, Italia (16239): precipitazioni: 10.07.2018 20:00:00 - 16.07.2018 20:00:00 (CEST)
Data & Tempo tt [°C] td [°C] ff [km/h] ff [kn] dd ppp [hPa] vv [km] rr [mm]
16.07.2018 20:00:00 28,2 15,1 18 10 SSE 1010,9 10 -
16.07.2018 19:00:00 29,0 16,0 13 7 S - 10 -
16.07.2018 18:00:00 - - - - - - - -
16.07.2018 17:00:00 - - - - - - - -
16.07.2018 16:00:00 28,0 17,0 16 9 SE - 10 -
16.07.2018 15:00:00 29,0 18,0 16 9 SSE - 10 -
16.07.2018 14:00:00 27,3 19,2 11 6 SO 1016,6 10 -
16.07.2018 13:00:00 28,0 21,0 15 8 SO - 10 -
16.07.2018 12:00:00 31,0 15,0 9 5 SO - 10 -
16.07.2018 11:00:00 29,9 14,9 4 2 - 1014,7 10 0,0
16.07.2018 10:00:00 28,0 16,0 5 3 NE - 10 -
16.07.2018 09:00:00 26,0 20,0 9 5 S - 10 -
16.07.2018 08:00:00 24,9 21,5 11 6 S 1015,2 10 -
16.07.2018 07:00:00 24,0 22,0 8 4 SSE - 6 -
16.07.2018 06:00:00 22,0 16,0 5 3 SE - 7 -
16.07.2018 05:00:00 22,0 16,4 5 3 S 1014,2 10 0,0
16.07.2018 04:00:00 22,0 15,0 5 3 SE - 10 -
16.07.2018 03:00:00 22,0 16,0 8 4 E - 10 -
16.07.2018 02:00:00 22,6 18,7 5 3 ESE 1014,9 10 -
16.07.2018 01:00:00 23,0 18,0 4 2 - - 10 -
16.07.2018 00:00:00 23,0 18,0 8 4 SE - 10 -
15.07.2018 23:00:00 24,6 18,6 8 4 SSO 1015,0 10 0,0
15.07.2018 22:00:00 26,0 18,0 4 2 - - 10 -
15.07.2018 21:00:00 27,0 18,0 5 3 SO - 10 -
15.07.2018 20:00:00 28,9 16,7 11 6 O 1013,9 10 -
15.07.2018 19:00:00 32,0 12,0 13 7 O - 10 -
15.07.2018 18:00:00 33,0 11,0 13 7 OSO - 10 -
15.07.2018 17:00:00 33,0 11,1 15 8 O 1013,6 10 0,0
15.07.2018 16:00:00 33,0 11,0 15 8 O - 10 -
15.07.2018 15:00:00 33,0 13,0 16 9 O - 10 -
15.07.2018 14:00:00 32,5 15,5 11 6 ONO 1013,8 10 -
15.07.2018 13:00:00 33,0 15,0 9 5 O - 10 -
15.07.2018 12:00:00 31,0 18,0 8 4 O - 10 -
15.07.2018 11:00:00 30,7 15,2 9 5 SSO 1014,6 10 0,0
15.07.2018 10:00:00 29,0 15,0 9 5 S - 10 -
15.07.2018 09:00:00 27,0 18,0 5 3 - - 10 -
15.07.2018 08:00:00 25,5 17,5 2 1 - 1014,3 10 -
15.07.2018 07:00:00 22,0 17,0 2 1 - - 10 -
15.07.2018 06:00:00 22,0 17,0 4 2 - - 10 -
15.07.2018 05:00:00 22,5 16,5 5 3 N 1013,5 10 0,0
15.07.2018 04:00:00 23,0 16,0 4 2 E - 10 -
15.07.2018 03:00:00 - - - - - - - -
15.07.2018 02:00:00 23,9 16,6 2 1 - 1014,1 10 -
15.07.2018 01:00:00 25,0 18,0 9 5 NE - 10 -
15.07.2018 00:00:00 25,0 19,0 9 5 NE - 10 -
14.07.2018 23:00:00 25,3 18,0 8 4 NE 1015,5 10 0,0
14.07.2018 22:00:00 25,0 20,0 2 1 - - 10 -
14.07.2018 21:00:00 27,0 19,0 8 4 SSO - 10 -
14.07.2018 20:00:00 27,6 18,6 11 6 OSO 1015,2 10 -
14.07.2018 19:00:00 30,0 16,0 11 6 SO - 10 -
14.07.2018 18:00:00 32,0 18,0 15 8 SO - 10 -
14.07.2018 17:00:00 31,9 18,7 15 8 S 1014,9 10 0,0
14.07.2018 16:00:00 33,0 20,0 16 9 SSO - 10 -
14.07.2018 15:00:00 34,0 17,0 8 4 SO - 10 -
14.07.2018 14:00:00 34,0 11,9 5 3 - 1016,1 10 -
14.07.2018 13:00:00 33,0 13,0 4 2 - - 10 -
14.07.2018 12:00:00 32,0 14,0 8 4 NO - 10 -
14.07.2018 11:00:00 29,9 15,3 4 2 - 1017,8 10 0,0
14.07.2018 10:00:00 27,0 16,0 4 2 - - 10 -
14.07.2018 09:00:00 25,0 16,0 5 3 NO - 10 -
14.07.2018 08:00:00 24,3 15,3 4 2 N 1017,5 10 -
14.07.2018 07:00:00 21,0 14,0 4 2 - - 10 -
14.07.2018 06:00:00 20,0 14,0 2 1 - - 10 -
14.07.2018 05:00:00 21,0 14,0 8 4 NNE 1016,9 10 0,0
14.07.2018 04:00:00 22,0 14,0 8 4 ENE - 10 -
14.07.2018 03:00:00 21,0 14,0 4 2 ENE - 10 -
14.07.2018 02:00:00 22,0 13,6 4 2 ESE 1017,6 10 -
14.07.2018 01:00:00 22,0 14,0 5 3 SE - 10 -
14.07.2018 00:00:00 23,0 14,0 5 3 SE - 10 -
13.07.2018 23:00:00 23,4 16,0 4 2 ESE 1017,7 30 0,0
13.07.2018 22:00:00 25,0 18,0 2 1 - - 10 -
13.07.2018 21:00:00 27,0 16,0 5 3 OSO - 10 -
13.07.2018 20:00:00 28,1 16,7 9 5 OSO 1017,3 10 -
13.07.2018 19:00:00 30,0 15,0 13 7 OSO - 10 -
13.07.2018 18:00:00 31,0 15,0 13 7 OSO - 10 -
13.07.2018 17:00:00 30,7 15,7 11 6 SO 1017,0 10 0,0
13.07.2018 16:00:00 32,0 16,0 11 6 SSO - 10 -
13.07.2018 15:00:00 31,0 18,0 13 7 SO - 10 -
13.07.2018 14:00:00 31,0 17,5 11 6 SSO 1017,6 10 -
13.07.2018 13:00:00 31,0 17,0 9 5 O - 10 -
13.07.2018 12:00:00 31,0 15,0 8 4 - - 10 -
13.07.2018 11:00:00 29,3 15,2 5 3 - 1018,0 10 0,0
13.07.2018 10:00:00 28,0 17,0 4 2 - - 10 -
13.07.2018 09:00:00 25,0 18,0 5 3 NNE - 10 -
13.07.2018 08:00:00 23,9 17,7 4 2 - 1017,7 10 -
13.07.2018 07:00:00 21,0 17,0 4 2 - - 10 -
13.07.2018 06:00:00 - - - - - - - -
13.07.2018 05:00:00 20,1 16,1 4 2 E 1017,4 10 0,0
13.07.2018 04:00:00 20,0 17,0 4 2 ESE - 10 -
13.07.2018 03:00:00 21,0 18,0 5 3 E - 10 -
13.07.2018 02:00:00 21,0 16,8 5 3 E 1017,2 10 -
13.07.2018 01:00:00 22,0 18,0 4 2 - - 10 -
13.07.2018 00:00:00 22,0 19,0 2 1 - - 10 -
12.07.2018 23:00:00 23,1 18,6 4 2 - 1017,1 10 0,0
12.07.2018 22:00:00 24,0 19,0 5 3 S - 10 -
12.07.2018 21:00:00 25,0 18,0 8 4 SSO - 10 -
12.07.2018 20:00:00 26,3 18,1 13 7 SSO 1016,2 10 -
12.07.2018 19:00:00 28,0 18,0 15 8 SSO - 10 -
12.07.2018 18:00:00 29,0 16,0 15 8 SSO - 10 -
12.07.2018 17:00:00 29,3 17,2 15 8 SO 1016,0 10 0,0
12.07.2018 16:00:00 29,0 18,0 16 9 SSO - 10 -
12.07.2018 15:00:00 30,0 17,0 13 7 S - 10 -
12.07.2018 14:00:00 29,4 16,2 15 8 S 1015,9 10 -
12.07.2018 13:00:00 29,0 18,0 16 9 S - 10 -
12.07.2018 12:00:00 29,0 17,0 13 7 SSE - 10 -
12.07.2018 11:00:00 28,4 17,3 15 8 S 1016,0 10 0,0
12.07.2018 10:00:00 27,0 17,0 13 7 SSE - 10 -
12.07.2018 09:00:00 26,0 18,0 13 7 S - 10 -
12.07.2018 08:00:00 25,3 17,0 13 7 SSE 1015,4 10 -
12.07.2018 07:00:00 23,0 16,0 5 3 SSE - 10 -
12.07.2018 06:00:00 23,0 15,0 8 4 SSE - 10 -
12.07.2018 05:00:00 21,7 17,2 9 5 SE 1014,9 10 0,0
12.07.2018 04:00:00 23,0 19,0 11 6 SSE - 10 -
12.07.2018 03:00:00 22,0 17,0 9 5 SSE - 10 -
12.07.2018 02:00:00 21,3 15,3 9 5 ESE 1015,3 10 -
12.07.2018 01:00:00 22,0 16,0 8 4 ESE - 10 -
12.07.2018 00:00:00 22,0 17,0 8 4 SE - 10 -
11.07.2018 23:00:00 24,1 16,7 9 5 SSE 1015,2 10 0,0
11.07.2018 22:00:00 24,0 17,0 9 5 S - 10 -
11.07.2018 21:00:00 26,0 16,0 8 4 S - 10 -
11.07.2018 20:00:00 26,7 15,8 15 8 S 1014,1 10 -
11.07.2018 19:00:00 28,0 15,0 11 6 SSO - 10 -
11.07.2018 18:00:00 29,0 16,0 11 6 SSO - 10 -
11.07.2018 17:00:00 27,9 15,7 16 9 S 1013,6 10 0,0
11.07.2018 16:00:00 29,0 16,0 18 10 SSO - 10 -
11.07.2018 15:00:00 28,0 18,0 21 11 S - 10 -
11.07.2018 14:00:00 28,3 19,7 21 11 S 1013,4 10 -
11.07.2018 13:00:00 28,0 18,0 22 12 SSE - 10 -
11.07.2018 12:00:00 28,0 19,0 21 11 S - 10 -
11.07.2018 11:00:00 27,8 19,1 16 9 SSE 1013,5 10 0,0
11.07.2018 10:00:00 26,0 19,0 16 9 S - 10 -
11.07.2018 09:00:00 25,0 19,0 16 9 SSE - 10 -
11.07.2018 08:00:00 24,6 17,7 11 6 S 1013,6 10 -
11.07.2018 07:00:00 23,0 15,0 8 4 SE - 10 -
11.07.2018 06:00:00 21,0 12,0 5 3 SE - 10 -
11.07.2018 05:00:00 21,7 13,9 4 2 - 1013,3 10 0,0
11.07.2018 04:00:00 22,0 15,0 8 4 ESE - 10 -
11.07.2018 03:00:00 21,0 16,0 2 1 - - 10 -
11.07.2018 02:00:00 20,2 13,5 5 3 ESE 1014,0 10 -
11.07.2018 01:00:00 22,0 17,0 5 3 E - 10 -
11.07.2018 00:00:00 23,0 20,0 5 3 S - 10 -
10.07.2018 23:00:00 23,4 19,8 4 2 - 1014,3 10 0,0
10.07.2018 22:00:00 24,0 19,0 9 5 S - 10 -
10.07.2018 21:00:00 26,0 17,0 11 6 S - 10 -
10.07.2018 20:00:00 27,2 16,1 11 6 SSO 1013,4 10 -

tt = Temperatura
td = dewpoint
ff = velocità del vento
dd = direzione del vento
ppp = reduced air pressure
vv = visibility
rr = precipitazioni

Stazioni seguenti

WeatherPro
AMSI
MeteoEarth